sat.trackr.live / text

‹ back to catalog

STARLINK-38043

NORAD 69712 · 2026-147J

PAYLOAD ACTIVE UNKNOWN

§ Identity

Operator
Country
US
Launch date
2026-06-28
Launch site
AFWTR
Launch vehicle
Mass (kg)
RCS (m²)

Purposes: comms

External: N2YO · Heavens-Above · Gunter

§ Orbital elements

Epoch: 2026-09-19T08:01:52.944384Z

Period
93.91 min
Inclination
97.2853°
Eccentricity
0.0000882
Mean motion
15.33455428 rev/d
Perigee alt
464.9 km
Apogee alt
466.1 km
Semi-major
6,843.6 km
B*
4.3223e-4
RAAN
298.6888°
Arg perigee
89.1306°
Mean anomaly
271.0037°
Rev number
1,405

§ Raw data

STARLINK-380431 69712U 26147J   26262.33464056  .00013909  00000+0  43223-3 0  99922 69712  97.2853 298.6888 0000882  89.1306 271.0037 15.33455428 14055

JSON: /api/v1/satellites/69712 · /tle

For live sub-satellite position, see the globe view (requires WebGL).

§ Visibility from observer

Set your observer location to see the next 7 days of passes ≥ 10°. The values pass through the URL so the page stays shareable.

No JS? Fill the form by hand. The geolocation button needs JavaScript.